Volver al catálogo

N-1 R/B

ActivoLEO
NORAD 8710·ROCKET BODY·🇯🇵 Japan

Lanzado Feb 29, 1976 desde Tanegashima Space Center

Loading…

Próximos Pases (próximas 24 horas)

TLE

ActualizadoSource: Space-Track

Época: Sep 14, 2026, 14:25 UTC

1 08710U 76019B   26257.60112744 -.00000047  00000-0  49642-5 0  9998
2 08710  69.6786  26.5149 0014823 225.5652 146.5737 13.69998990527327

Sigue N-1 R/B en tiempo real con AllMySat

Download on the App Store